When you browse on this site, cookies collect data to enhance your experience and personalize the content and advertising you see.
Visit our Privacy Policy to learn more. By continuing to use the site, you agree to this use of cookies and data.
EN

Hourly Weather Yasynets'

Today, 12 July, Sunday

Time Temperature Precipitation Wind Pressure Humidity
00:00 +15°C° 0.5 mm 5 mps 750 mmHg 90%
01:00 +15°C° 0.5 mm 5 mps 750 mmHg 90%
02:00 +14°C° 0 mm 4 mps 751 mmHg 89%
03:00 +14°C° 0.1 mm 4 mps 751 mmHg 89%
04:00 +13°C° 0.1 mm 4 mps 751 mmHg 88%
05:00 +13°C° 0.1 mm 5 mps 750 mmHg 88%
06:00 +13°C° 0.1 mm 5 mps 751 mmHg 88%
07:00 +13°C° 0.1 mm 5 mps 751 mmHg 88%
08:00 +13°C° 0.1 mm 4 mps 751 mmHg 88%
09:00 +12°C° 1.4 mm 5 mps 751 mmHg 90%
10:00 +12°C° 1.4 mm 5 mps 751 mmHg 92%
11:00 +10°C° 1.4 mm 5 mps 751 mmHg 94%
12:00 +10°C° 0.9 mm 5 mps 752 mmHg 94%
13:00 +10°C° 0.9 mm 5 mps 752 mmHg 94%
14:00 +11°C° 0.9 mm 4 mps 753 mmHg 94%
15:00 +12°C° 1.1 mm 4 mps 752 mmHg 92%
16:00 +12°C° 1.1 mm 4 mps 752 mmHg 89%
17:00 +13°C° 1.1 mm 3 mps 752 mmHg 86%
18:00 +13°C° 0 mm 3 mps 752 mmHg 87%
19:00 +14°C° 0 mm 2 mps 752 mmHg 89%
20:00 +14°C° 0 mm 1 mps 752 mmHg 90%
21:00 +13°C° 0 mm 2 mps 752 mmHg 91%
22:00 +12°C° 0 mm 2 mps 752 mmHg 92%
23:00 +10°C° 0 mm 2 mps 751 mmHg 93%

Tomorrow, 13 July, Monday

Time Temperature Precipitation Wind Pressure Humidity
00:00 +10°C° 0 mm 2 mps 752 mmHg 94%
01:00 +10°C° 0 mm 2 mps 752 mmHg 95%
02:00 +10°C° 0 mm 2 mps 752 mmHg 96%
03:00 +10°C° 0 mm 2 mps 751 mmHg 96%
04:00 +10°C° 0 mm 3 mps 751 mmHg 96%
05:00 +9°C° 0 mm 3 mps 751 mmHg 96%
06:00 +11°C° 0 mm 3 mps 751 mmHg 89%
07:00 +12°C° 0 mm 4 mps 751 mmHg 82%
08:00 +14°C° 0 mm 4 mps 751 mmHg 76%
09:00 +15°C° 0 mm 4 mps 751 mmHg 70%
10:00 +16°C° 0 mm 5 mps 751 mmHg 64%
11:00 +17°C° 0 mm 5 mps 751 mmHg 58%
12:00 +19°C° 0 mm 5 mps 751 mmHg 58%
13:00 +19°C° 0 mm 5 mps 751 mmHg 57%
14:00 +20°C° 0 mm 5 mps 750 mmHg 57%
15:00 +20°C° 0.1 mm 5 mps 750 mmHg 58%
16:00 +19°C° 0.1 mm 4 mps 750 mmHg 60%
17:00 +19°C° 0.1 mm 4 mps 749 mmHg 61%
18:00 +18°C° 0 mm 4 mps 749 mmHg 68%
19:00 +17°C° 0 mm 3 mps 749 mmHg 75%
20:00 +15°C° 0 mm 2 mps 749 mmHg 83%
21:00 +14°C° 0 mm 2 mps 749 mmHg 86%
22:00 +13°C° 0 mm 2 mps 749 mmHg 90%
23:00 +13°C° 0 mm 2 mps 749 mmHg 94%

Day after tomorrow, 14 July, Tuesday

Time Temperature Precipitation Wind Pressure Humidity
00:00 +12°C° 0 mm 2 mps 749 mmHg 94%
01:00 +12°C° 0 mm 2 mps 749 mmHg 95%
02:00 +12°C° 0 mm 2 mps 749 mmHg 95%
03:00 +12°C° 0 mm 2 mps 749 mmHg 96%
04:00 +10°C° 0 mm 2 mps 749 mmHg 96%
05:00 +10°C° 0 mm 2 mps 749 mmHg 97%
06:00 +13°C° 0 mm 2 mps 749 mmHg 91%
07:00 +14°C° 0 mm 3 mps 749 mmHg 86%
08:00 +16°C° 0 mm 3 mps 749 mmHg 80%
09:00 +18°C° 0 mm 3 mps 749 mmHg 75%
10:00 +19°C° 0 mm 3 mps 749 mmHg 69%
11:00 +20°C° 0 mm 4 mps 749 mmHg 63%
12:00 +21°C° 0.2 mm 4 mps 749 mmHg 63%
13:00 +21°C° 0.2 mm 4 mps 749 mmHg 64%
14:00 +21°C° 0.2 mm 4 mps 749 mmHg 64%
15:00 +21°C° 0.1 mm 4 mps 748 mmHg 65%
16:00 +21°C° 0.1 mm 4 mps 748 mmHg 66%
17:00 +21°C° 0.1 mm 4 mps 748 mmHg 67%
18:00 +19°C° 0.1 mm 3 mps 748 mmHg 73%
19:00 +18°C° 0.1 mm 3 mps 748 mmHg 79%
20:00 +17°C° 0.1 mm 2 mps 748 mmHg 85%
21:00 +16°C° 0 mm 2 mps 748 mmHg 88%
22:00 +15°C° 0 mm 2 mps 748 mmHg 91%
23:00 +14°C° 0 mm 2 mps 748 mmHg 94%

15 July, Wednesday

Time Temperature Precipitation Wind Pressure Humidity
00:00 +14°C° 0 mm 2 mps 748 mmHg 94%
01:00 +13°C° 0 mm 2 mps 748 mmHg 95%
02:00 +13°C° 0 mm 2 mps 748 mmHg 95%
03:00 +13°C° 0 mm 2 mps 748 mmHg 95%
04:00 +13°C° 0 mm 2 mps 748 mmHg 95%
05:00 +12°C° 0 mm 2 mps 748 mmHg 96%
06:00 +14°C° 0 mm 2 mps 748 mmHg 89%
07:00 +16°C° 0 mm 2 mps 748 mmHg 83%
08:00 +18°C° 0 mm 2 mps 749 mmHg 77%
09:00 +19°C° 0 mm 2 mps 749 mmHg 71%
10:00 +20°C° 0 mm 2 mps 748 mmHg 65%
11:00 +23°C° 0 mm 2 mps 748 mmHg 59%
12:00 +23°C° 0.2 mm 2 mps 748 mmHg 58%
13:00 +23°C° 0.2 mm 2 mps 748 mmHg 57%
14:00 +24°C° 0.2 mm 2 mps 748 mmHg 57%
15:00 +24°C° 0 mm 2 mps 748 mmHg 56%
16:00 +24°C° 0 mm 1 mps 747 mmHg 55%
17:00 +24°C° 0 mm 1 mps 747 mmHg 55%
18:00 +22°C° 0 mm 1 mps 747 mmHg 62%
19:00 +21°C° 0 mm 1 mps 747 mmHg 68%
20:00 +17°C° 0 mm 0 mps 747 mmHg 75%
21:00 +16°C° 0 mm 0 mps 747 mmHg 78%
22:00 +16°C° 0 mm 1 mps 747 mmHg 80%
23:00 +16°C° 0 mm 1 mps 747 mmHg 83%

16 July, Thursday

Time Temperature Precipitation Wind Pressure Humidity
00:00 +15°C° 0 mm 1 mps 747 mmHg 84%
01:00 +15°C° 0 mm 1 mps 746 mmHg 86%
02:00 +15°C° 0 mm 1 mps 746 mmHg 87%
03:00 +15°C° 0 mm 2 mps 746 mmHg 87%
04:00 +14°C° 0 mm 2 mps 745 mmHg 87%
05:00 +14°C° 0 mm 2 mps 745 mmHg 87%
06:00 +16°C° 0 mm 2 mps 745 mmHg 83%
07:00 +18°C° 0 mm 2 mps 745 mmHg 78%
08:00 +20°C° 0 mm 3 mps 745 mmHg 73%
09:00 +21°C° 0.7 mm 3 mps 744 mmHg 72%
10:00 +22°C° 0.7 mm 3 mps 744 mmHg 71%
11:00 +24°C° 0.7 mm 3 mps 743 mmHg 70%
12:00 +22°C° 1.2 mm 3 mps 743 mmHg 72%
13:00 +22°C° 1.2 mm 3 mps 743 mmHg 73%
14:00 +22°C° 1.2 mm 3 mps 743 mmHg 75%
15:00 +21°C° 0.6 mm 3 mps 743 mmHg 80%
16:00 +19°C° 0.6 mm 3 mps 742 mmHg 85%
17:00 +18°C° 0.6 mm 3 mps 742 mmHg 91%
18:00 +17°C° 0.1 mm 3 mps 742 mmHg 92%
19:00 +17°C° 0.1 mm 3 mps 742 mmHg 94%
20:00 +16°C° 0.1 mm 2 mps 742 mmHg 95%
21:00 +16°C° 0 mm 2 mps 742 mmHg 95%
22:00 +15°C° 0 mm 2 mps 742 mmHg 95%
23:00 +15°C° 0 mm 2 mps 742 mmHg 96%

17 July, Friday

Time Temperature Precipitation Wind Pressure Humidity
00:00 +14°C° 0 mm 2 mps 742 mmHg 96%
01:00 +14°C° 0 mm 2 mps 742 mmHg 96%
02:00 +13°C° 0 mm 2 mps 742 mmHg 97%
03:00 +13°C° 0 mm 2 mps 742 mmHg 97%
04:00 +12°C° 0 mm 3 mps 742 mmHg 97%
05:00 +11°C° 0 mm 3 mps 742 mmHg 98%
06:00 +13°C° 0 mm 3 mps 742 mmHg 94%
07:00 +14°C° 0 mm 3 mps 743 mmHg 90%
08:00 +16°C° 0 mm 3 mps 743 mmHg 86%
09:00 +18°C° 0 mm 3 mps 743 mmHg 78%
10:00 +19°C° 0 mm 4 mps 743 mmHg 71%
11:00 +20°C° 0 mm 4 mps 743 mmHg 64%
12:00 +21°C° 0.4 mm 4 mps 743 mmHg 66%
13:00 +21°C° 0.4 mm 4 mps 743 mmHg 67%
14:00 +21°C° 0.4 mm 4 mps 743 mmHg 69%
15:00 +21°C° 0.6 mm 4 mps 743 mmHg 71%
16:00 +21°C° 0.6 mm 3 mps 743 mmHg 73%
17:00 +20°C° 0.6 mm 3 mps 743 mmHg 74%
18:00 +19°C° 0.2 mm 3 mps 743 mmHg 80%
19:00 +18°C° 0.2 mm 3 mps 743 mmHg 85%
20:00 +17°C° 0.2 mm 2 mps 743 mmHg 91%
21:00 +16°C° 0 mm 2 mps 743 mmHg 93%
22:00 +15°C° 0 mm 2 mps 743 mmHg 95%
23:00 +14°C° 0 mm 2 mps 744 mmHg 97%
Show more